Regional Weather Roundup
Issued by NWS

Home | Current Version | Previous Version | Text Only | Print | Product List | Glossary On
Versions: 1 2 3 4 5 6 7 8 9 10 11 12 13 14 15 16 17 18 19 20 21 22 23 24 25 26 27 28 29 30 31 32 33 34 35 36 37 38 39 40 41 42 43 44 45 46 47 48 49 50
000
ASCA44 KEWX 061620
RWRMX

LATIN AMERICA AND CARIBBEAN REGIONAL WEATHER ROUNDUP
NATIONAL WEATHER SERVICE AUSTIN/SAN ANTONIO TX
1100 AM CDT FRI MAY 06 2016

NOTE: "FAIR" INDICATED FEW OR NO CLOUDS BELOW 12,000 FEET WITH NO
SIGNIFICANT WEATHER AND/OR OBSTRUCTIONS TO VISIBILITY.

BAJA CALIFORNIA

CITY           SKY/WX    TMP DP  RH WIND       PRES   REMARKS
LORETO         MOSUNNY   75  57  53 NE6       29.91R
LA PAZ         MOSUNNY   70  50  49 S3        29.96R
MEXICALI       MOSUNNY   72  41  33 S3        29.84S
S.J. DEL CABO  PTSUNNY   81  63  54 NW12      29.91R
TIJUANA        CLOUDY    57  52  82 SE3       29.98R

NORTHWESTERN MEXICO

CITY           SKY/WX    TMP DP  RH WIND       PRES   REMARKS
CULIACAN       PTSUNNY   81  59  47 SE7       29.91R
DURANGO        PTSUNNY   72  36  26 CALM      30.25S
GUAYMAS        SUNNY     77  54  44 N6        29.87R
HERMOSILLO     SUNNY     75  48  38 CALM      29.95R
CD. JUAREZ     SUNNY     77  34  20 CALM      29.94S
LOS MOCHIS     MOSUNNY   79  63  57 CALM      29.91R
OBREGON        MOSUNNY   75  63  64 W2        29.88R

NORTHEASTERN MEXICO

CITY           SKY/WX    TMP DP  RH WIND       PRES   REMARKS
CHIHUAHUA      MOSUNNY   82  30  15 SW8       30.04F
MATAMOROS      MOSUNNY   84  59  42 S7        30.06R
MONCLOVA         N/A    N/A N/A N/A MISG        N/A
MONTERREY      SUNNY     79  50  36 SE8       30.06S
NUEVO LAREDO   MOSUNNY   84  48  28 SE9       30.05S
PIEDRAS NEGRAS SUNNY     81  55  41 SE6       30.07S
REYNOSA        MOSUNNY   82  48  30 S6        30.06S
SALTILLO       SUNNY     77  54  44 N7        30.25S
TORREON        PTSUNNY   81  48  32 E5        30.10F
CD. VICTORIA   SUNNY     81  54  39 S10       30.08S

WESTERN MEXICO

CITY           SKY/WX    TMP DP  RH WIND       PRES   REMARKS
AGUASCALIENTES MOSUNNY   72  41  33 CALM      30.30F
COLIMA         MOSUNNY   81  61  50 CALM      30.02
DEL BAJIO      MOSUNNY   73  52  46 CALM      30.33F
GUADALAJARA    SUNNY     79  39  24 CALM      30.20F
MANZANILLO     CLOUDY    77  72  83 CALM      29.91R
MAZATLAN       MOSUNNY   84  66  54 SE3       29.91S
P. VALLARTA    SUNNY     81  72  74 CALM      29.92R
URUAPAN        SUNNY     73  55  53 S7        30.21S HAZE
ZACATECAS      PTSUNNY   72  41  33 CALM      30.32F

CENTRAL MEXICO

CITY           SKY/WX    TMP DP  RH WIND       PRES   REMARKS
CUERNAVACA     PTSUNNY   75  61  60 CALM      30.17S
MEXICO CITY    MOSUNNY   70  46  43 N5        30.37S
MORELIA        SUNNY     75  55  50 E3        30.28S
POZA RICA      SUNNY     77  68  73 CALM      30.11R
PUEBLA         MOSUNNY   66  46  48 N3        30.37S
QUERETARO        N/A    N/A N/A N/A MISG        N/A
S. LUIS POTOSI SUNNY     68  46  45 E3        30.30F
TAMPICO        SUNNY     79  64  61 SW3       30.07S
TOLUCA         PTSUNNY   68  52  56 CALM      30.44S HAZE

SOUTHERN MEXICO

CITY           SKY/WX    TMP DP  RH WIND       PRES   REMARKS
ACAPULCO       PTSUNNY   82  75  78 W13       29.85R
B. DE HUATULCO PTSUNNY   88  68  51 CALM      29.97R HX  91
OAXACA         PTSUNNY   73  54  49 CALM      30.25S
P. ESCONDIDO   MOSUNNY   84  77  79 SE20      30.00R HX  94
VERACRUZ       PTSUNNY   81  66  61 E6        30.07R
ZIHUATANEJO    PTSUNNY   86  73  66 SW5       29.91R HX  93

YUCATAN PENINSULA

CITY           SKY/WX    TMP DP  RH WIND       PRES   REMARKS
CAMPECHE       MOSUNNY   81  63  54 NE9       30.00F
CANCUN         PTSUNNY   84  57  39 N10       30.00S
CHETUMAL       SUNNY     79  63  57 N9        30.03F
CD. DEL CARMEN MOSUNNY   82  61  47 N7        30.04R
COZUMEL        MOSUNNY   77  64  65 NW9       30.02R
MERIDA         MOSUNNY   84  57  39 N9        30.02S
MINATITLAN     PTSUNNY   81  72  74 CALM      30.03R
TAPACHULA      MOSUNNY   90  81  74 NW8       29.85F HX 108
TUX. GUTIERREZ PTSUNNY   79  59  50 N6        30.05S
VILLAHERMOSA   MOSUNNY   81  70  69 NE5       30.07R

CENTRAL AMERICA

CITY           SKY/WX    TMP DP  RH WIND       PRES   REMARKS
BELIZE CITY    MOSUNNY   81  68  65 N6        30.04F
MANAGUA        MOSUNNY   90  75  62 SE7       29.83F HX 100

CARIBBEAN

CITY           SKY/WX    TMP DP  RH WIND       PRES   REMARKS
ARUBA          MOSUNNY   93  75  55 E22       29.80S HX 104
CURACAO        MOSUNNY   90  75  62 E16       29.83F HX 100
KINGSTON       PTSUNNY   84  75  74 S8        29.86S HX  92
NASSAU         MOSUNNY   84  68  58 W16       29.90R
SAN JUAN       MOSUNNY   90  73  58 S12G24    29.92F HX  98
SANTO DOMINGO  MOSUNNY   86  75  70 S12       29.89S HX  95
ST. CROIX      MOSUNNY   88  75  66 SE12      29.97R HX  97
ST. KITTS      MOSUNNY   86  73  66 SE16      29.94F HX  93
ST. MAARTEN    MOSUNNY   84  77  79 SE16      29.94F HX  94
ST. THOMAS     MOSUNNY   88  79  74 SE15      29.94F HX 102

$$





USA.gov is the U.S. government's official web portal to all federal, state and local government web resources and services.